Temp
23 22 21 22 26 25 26 27 25 25 23 21 21 22 22 19 22 23 15 15 16 16 16 15 15 15 15 15 15 15 14 14 13 14 14 13 13 12 13 13 13 14 15 15 16 16 15 16 17
22 21 21 22 26 26 27 25 27 23 20 21 21 21 20 18 18 16 15 15 15 15 15 15 15 15 14 15 15 14 14 14 13 13 13 13 13 12 12 12 13 13 14 15 15 16 16 15 16
22 21 25 24 22 26 27 25 23 21 20 21 20 19 19 17 17 16 15 15 15 15 15 15 15 15 15 14 14 13 13 13 13 13 13 13 12 12 12 12 12 12 13 14 15 15 15 14 15
21 23 22 25 25 25 24 23 22 20 20 20 20 19 18 17 17 15 15 15 16 15 15 15 15 15 14 13 13 13 13 13 12 12 12 12 12 12 12 12 12 12 12 12 13 13 14 14 14
20 22 24 24 24 24 23 22 22 22 20 20 20 18 18 16 16 16 15 15 16 15 15 14 14 14 13 13 13 13 13 13 13 13 13 13 12 12 12 12 12 11 11 11 11 12 13 14 15
24 22 24 25 24 24 23 22 22 21 20 19 19 19 17 15 15 14 15 15 15 15 14 14 14 14 13 13 13 13 13 13 13 12 13 13 13 13 13 13 12 12 11 11 11 12 13 14 14
24 24 24 24 24 24 23 23 22 21 20 19 20 18 17 15 15 15 15 15 15 15 15 14 14 13 14 14 14 14 13 13 13 13 13 14 13 13 13 13 13 12 12 12 12 13 13 14 14
23 24 23 24 25 25 23 21 20 21 19 19 19 18 17 16 14 15 14 14 15 15 15 15 14 14 14 14 14 14 14 14 14 14 14 14 14 14 14 14 13 13 12 12 12 13 13 13 14
21 25 25 25 24 25 22 22 18 18 19 18 17 19 19 15 14 14 14 14 13 15 15 15 15 15 15 14 14 13 14 14 14 14 14 14 14 14 14 14 14 13 13 13 13 13 13 13 14
24 24 25 24 24 24 22 22 20 20 19 18 16 16 16 15 15 15 16 15 14 14 16 16 15 14 14 14 14 14 14 14 14 14 14 14 14 14 14 14 14 14 13 13 13 13 13 13 13
22 25 24 23 22 23 21 20 19 20 19 19 16 16 16 16 16 16 17 16 16 16 17 15 15 15 15 14 14 14 14 14 14 14 14 14 14 14 14 14 14 14 14 13 13 13 14 14 13
24 24 22 22 20 21 21 19 19 18 19 19 18 18 17 17 16 17 17 17 16 16 16 14 15 15 15 14 14 14 14 14 14 14 14 14 14 14 14 14 14 14 14 14 13 12 13 13 14
23 22 20 20 20 19 19 19 19 17 17 18 17 17 18 18 17 17 17 17 17 15 15 16 16 16 15 14 14 14 13 13 13 13 13 13 13 13 14 14 14 14 14 14 14 14 13 13 13
22 21 20 20 20 19 20 18 19 17 16 17 17 18 18 18 18 17 16 16 15 15 16 16 16 16 15 14 14 13 13 13 12 12 13 13 13 13 13 13 13 13 13 13 13 13 13 14 13
21 22 21 21 20 20 20 20 19 18 17 17 18 18 18 18 17 17 17 16 16 16 16 16 16 16 15 14 13 13 13 13 12 12 12 13 13 13 13 12 11 12 12 12 11 12 12 13 13
23 22 23 22 21 19 21 24 18 18 17 17 18 18 18 17 17 17 16 16 17 16 17 16 16 15 14 14 13 13 13 13 12 12 11 11 11 12 11 10 10 10 10 10 10 11 12 12 13
21 23 22 23 21 20 21 23 18 17 18 18 18 17 17 17 17 17 17 16 16 16 15 15 14 14 13 13 13 13 12 12 11 11 11 11 11 10 10 10 9 9 9 9 9 9 10 10 11
22 22 22 23 22 21 20 22 18 17 18 18 18 18 18 18 18 17 16 14 14 13 14 14 14 13 13 13 12 12 11 11 11 10 9 9 9 9 8 8 8 8 8 7 8 7 8 9 9
22 22 22 23 22 21 22 23 21 18 17 18 18 18 18 18 18 13 12 11 11 12 12 13 13 13 12 12 11 10 10 10 9 8 8 7 7 6 6 6 6 6 5 5 5 5 6 8 8
21 21 22 23 21 22 22 22 20 19 18 19 19 19 19 16 11 10 10 11 10 10 12 12 12 12 12 12 11 10 10 9 7 7 6 6 5 5 4 4 4 3 3 3 4 4 5 6 6
22 21 22 23 20 20 20 22 20 19 19 19 18 17 15 13 10 8 8 10 10 10 10 11 11 11 11 10 10 9 8 7 6 5 5 4 4 4 3 3 3 3 3 3 3 3 3 4 5
22 22 21 21 21 22 20 21 21 19 19 18 16 14 13 12 11 10 10 10 9 10 10 10 10 10 10 9 8 7 6 6 5 4 4 4 4 3 3 2 2 2 2 2 2 3 2 3 4
22 21 21 20 20 20 20 20 21 18 17 15 13 13 12 11 11 10 10 10 9 10 9 10 9 9 8 8 7 5 5 4 4 4 3 3 3 4 3 3 2 2 2 2 2 2 2 2 3
20 21 19 18 19 20 20 20 19 16 14 14 12 12 11 10 10 9 9 8 7 9 9 9 8 8 7 6 6 6 4 4 4 4 4 4 4 3 3 3 3 2 2 2 1 1 1 2 2
21 20 20 19 19 19 18 18 15 12 13 14 11 11 11 10 10 10 9 9 9 7 8 8 8 7 7 6 6 5 4 4 4 4 4 4 4 3 3 2 2 2 1 1 1 1 1 1 1
19 20 19 18 19 18 18 18 13 12 12 12 12 12 12 12 11 9 9 10 9 8 8 8 7 7 7 6 5 5 4 4 4 4 3 3 3 2 2 1 1 1 1 0 0 0 0 0 1
19 18 17 18 15 17 17 14 13 12 12 12 12 12 12 11 10 11 11 11 9 9 8 8 8 6 6 5 5 4 4 3 3 3 3 3 3 2 2 2 1 1 0 -0 -1 -0 -0 -0 -0
18 16 18 17 16 16 16 16 13 13 12 12 12 12 11 11 9 11 10 10 9 8 8 8 7 6 5 5 4 4 4 3 3 3 3 2 2 2 1 1 0 -0 -0 -1 -1 -1 -1 -1 -1
17 16 14 14 11 14 14 14 12 12 13 11 11 10 10 10 11 12 12 11 9 8 7 6 6 6 5 4 4 4 3 3 3 3 3 3 3 2 1 0 0 -1 -1 -1 -2 -2 -1 -1 -1
15 14 13 13 12 11 12 13 12 11 11 11 11 12 11 12 12 12 11 10 9 8 7 6 6 5 4 4 3 3 3 3 3 3 3 2 1 0 0 -0 -0 -1 -1 -2 -2 -2 -2 -2 -2
Height
791 791 792 792 801 801 800 795 791 795 800 803 802 803 804 813 811 818 827 829 830 832 835 835 835 836 838 838 839 838 839 841 843 844 845 845 844 843 843 843 842 841 842 840 839 839 839 838 838
790 792 793 794 802 804 797 793 791 798 805 804 805 808 811 820 819 824 827 830 832 833 836 837 838 838 839 839 838 839 841 842 844 844 844 844 843 843 843 842 842 842 842 842 841 840 840 839 839
791 791 791 796 811 803 798 796 799 803 804 804 809 811 815 824 823 826 829 831 832 835 836 838 838 839 839 840 839 841 842 844 844 845 845 844 844 843 842 842 842 843 843 843 842 842 841 840 840
791 792 797 798 802 796 797 797 800 804 804 805 808 816 819 822 823 825 829 830 833 835 837 838 838 839 840 841 841 841 843 844 844 845 844 844 844 843 843 842 842 843 843 843 842 842 841 841 840
791 794 800 805 802 797 794 794 797 800 804 807 808 819 821 825 825 827 830 832 833 836 839 839 840 841 842 842 843 843 844 844 844 844 844 844 844 844 844 843 843 843 843 843 842 841 841 840 841
791 796 803 804 801 795 794 794 796 799 806 810 810 813 823 826 825 829 831 833 835 837 839 841 841 842 843 843 844 844 845 845 845 845 844 844 844 845 845 845 844 843 844 843 843 842 841 841 841
792 796 802 803 799 797 794 793 797 802 806 811 811 819 823 827 829 829 833 836 838 838 839 841 842 843 844 845 844 845 846 846 846 846 846 845 845 845 845 845 845 844 844 844 844 843 842 842 843
790 793 803 800 798 795 793 797 798 799 808 809 811 816 823 825 830 831 833 837 839 840 840 841 843 843 844 845 846 846 845 846 846 847 846 846 846 846 846 845 845 844 844 845 844 843 843 842 842
790 796 799 795 798 790 792 795 803 805 807 811 812 811 814 823 829 832 835 838 841 841 842 842 843 843 845 846 847 847 847 847 847 847 847 847 847 846 846 846 845 844 844 844 845 844 843 843 843
787 796 791 786 785 787 791 793 800 804 808 812 815 816 819 824 829 832 834 838 841 842 843 843 843 844 844 845 846 847 847 848 847 847 847 847 847 846 846 846 845 844 843 844 844 844 844 843 843
791 788 785 786 786 784 791 798 801 801 807 805 813 816 821 825 829 831 834 835 838 839 840 841 843 844 844 845 847 847 847 847 847 846 846 846 846 846 845 845 844 844 843 843 844 843 843 843 843
789 784 787 787 789 788 791 797 802 803 801 802 808 814 818 823 827 830 832 832 835 836 839 841 843 843 844 845 846 846 846 847 846 846 845 844 844 844 844 844 843 842 842 842 842 842 842 841 841
787 787 790 790 790 793 795 799 800 808 806 807 811 816 818 821 825 827 827 831 835 837 839 841 842 843 844 845 846 846 847 846 845 844 844 843 842 842 842 842 841 841 841 841 840 840 840 838 838
787 789 791 792 791 793 795 802 801 808 808 810 812 814 816 818 822 826 829 831 833 836 838 840 841 843 844 845 846 846 846 845 844 843 843 842 841 840 840 839 839 838 838 838 837 837 836 836 835
788 791 791 792 793 796 795 803 802 803 808 811 812 814 817 819 822 822 825 829 832 834 836 838 841 843 844 845 846 846 845 845 844 843 842 841 840 838 837 836 836 835 834 834 833 833 832 831 831
790 792 795 790 793 799 796 793 801 803 806 810 812 814 815 816 817 821 824 828 831 834 835 839 840 842 843 845 845 845 845 844 843 842 841 840 839 837 835 834 833 832 831 831 831 830 829 828 827
797 798 800 792 790 796 798 792 799 803 805 807 809 810 814 816 817 819 822 827 829 832 835 838 840 842 843 843 844 844 844 843 842 841 841 840 839 838 835 833 831 830 829 828 827 826 826 825 823
797 798 796 793 790 794 798 791 798 801 802 803 806 807 809 810 811 817 822 825 829 831 834 838 840 842 843 844 844 844 844 843 843 842 840 839 838 837 837 833 831 829 828 827 825 824 823 821 819
791 794 794 787 784 790 786 783 786 796 801 802 802 803 804 807 816 822 822 828 832 834 836 840 841 842 844 845 846 846 845 844 843 841 838 839 837 835 836 835 831 828 827 825 824 822 821 819 817
792 793 789 781 784 787 786 785 789 792 791 793 797 801 805 815 823 829 832 830 832 834 841 843 844 844 844 845 846 846 845 843 842 840 838 840 837 834 833 836 832 828 825 824 822 821 820 818 817
786 788 784 782 788 790 791 785 789 788 789 793 798 804 810 815 820 827 833 834 835 836 842 847 848 847 846 846 847 847 845 844 843 841 839 840 836 836 833 834 833 829 826 824 822 821 819 818 816
786 776 779 784 787 791 789 793 785 787 792 798 805 811 813 818 825 828 835 838 836 840 846 848 850 850 849 847 847 847 847 844 843 842 840 840 837 835 833 833 833 829 826 823 821 820 818 817 814
779 777 781 785 789 792 793 795 783 793 801 811 815 817 820 825 828 830 833 840 837 843 849 851 851 851 851 849 848 846 845 843 841 841 842 839 834 833 833 832 830 827 824 822 820 818 816 815 813
778 781 788 793 794 798 791 794 794 807 817 814 823 824 825 829 834 835 837 839 839 845 848 850 854 850 851 851 848 845 846 844 843 841 840 837 832 831 832 830 828 825 822 819 816 814 813 811 810
781 786 797 800 802 802 801 801 816 826 822 816 826 830 832 835 837 837 841 840 841 845 847 850 852 851 852 851 848 845 845 845 843 841 838 833 831 831 830 827 824 821 818 815 813 811 809 807 806
792 791 800 810 805 804 800 802 823 830 830 830 831 833 834 834 836 838 840 841 843 844 847 851 850 851 850 849 849 846 844 843 842 836 834 832 830 829 826 824 821 818 814 811 809 807 805 803 802
794 799 802 805 817 811 806 821 827 830 833 834 835 835 838 839 841 840 838 839 842 845 848 848 850 851 850 850 847 844 841 839 839 833 832 830 829 826 823 821 817 813 809 806 804 802 801 799 798
793 804 803 807 817 816 809 809 825 828 831 833 836 837 840 840 841 840 840 842 843 845 847 847 850 850 852 847 844 842 839 838 835 832 831 829 826 824 821 817 813 809 805 802 800 798 797 795 793
805 806 819 823 836 822 823 822 832 828 822 831 837 841 841 842 841 842 840 841 843 845 847 849 850 850 849 847 843 841 840 836 834 831 829 826 823 820 817 813 809 805 801 799 797 794 792 790 788
812 817 824 822 833 837 833 830 833 834 831 833 837 838 840 840 842 844 844 842 844 845 847 849 849 849 848 846 844 842 838 835 833 829 826 823 821 817 814 809 805 802 799 797 794 791 788 786 784
Wind_Speed
5 4 2 1 3 2 2 0 1 6 4 2 2 1 5 6 1 3 9 12 16 15 12 11 11 11 10 10 8 8 11 10 9 7 7 9 10 10 11 10 11 11 10 8 9 8 9 9 9
4 2 2 2 3 3 1 2 3 4 7 10 8 5 4 4 4 8 7 12 14 14 12 10 8 8 7 6 7 10 10 8 8 7 8 8 9 10 10 10 11 10 9 8 7 5 3 6 8
3 2 2 2 2 3 1 3 5 13 6 2 5 6 3 3 7 5 12 15 15 13 11 10 8 7 7 8 10 10 8 7 7 7 8 8 8 9 9 10 10 10 9 7 3 3 2 3 4
1 1 3 2 3 1 2 2 13 10 4 5 8 8 5 1 7 10 18 16 14 12 9 7 6 7 8 8 9 8 7 6 6 6 6 7 8 9 9 9 10 9 8 7 5 1 1 2 2
3 1 1 1 2 2 2 6 12 5 5 6 2 5 5 3 11 22 18 14 14 10 7 8 8 8 8 8 8 7 6 5 5 5 5 6 7 8 8 9 9 9 9 8 6 5 2 3 5
2 0 2 4 3 1 3 10 7 4 4 6 8 9 4 10 19 16 17 15 12 11 9 8 8 7 7 7 6 6 6 5 5 5 5 6 7 8 8 8 9 9 9 8 7 6 2 2 1
1 1 1 2 2 3 4 7 5 6 8 5 9 4 6 12 14 20 17 14 12 12 10 9 7 7 7 7 7 7 7 6 5 5 5 6 7 7 7 8 9 9 8 8 7 5 3 1 0
3 2 2 3 3 2 7 4 6 4 4 6 3 5 7 16 16 20 16 13 12 10 9 8 7 6 6 7 6 7 6 6 5 5 5 4 5 5 5 6 7 8 8 7 6 5 3 1 3
3 1 3 3 4 2 8 4 2 3 8 3 1 5 12 24 20 19 15 11 9 9 8 8 8 7 5 4 4 2 3 4 3 4 4 5 4 5 5 6 7 6 6 7 6 3 3 3 1
3 2 3 3 3 4 8 3 8 5 7 4 5 13 26 24 21 18 15 12 9 9 9 9 9 7 5 3 1 1 1 1 4 4 5 5 6 6 7 8 8 6 6 5 5 4 3 3 1
3 3 1 1 2 7 7 5 2 7 4 7 13 20 23 22 18 17 15 16 15 14 13 12 8 5 3 3 3 4 6 6 7 8 8 9 10 10 10 10 10 9 9 7 7 6 5 4 2
3 2 1 2 4 5 6 7 4 2 1 4 18 23 21 19 18 18 17 19 18 16 10 9 6 5 4 4 4 5 5 4 6 6 8 11 11 12 12 12 11 11 11 11 11 9 8 7 6
3 1 4 5 8 8 9 5 5 2 5 15 21 19 19 19 21 22 21 14 13 12 10 10 7 4 4 3 3 4 5 7 7 6 7 8 8 9 10 12 13 13 12 13 13 13 12 11 10
1 3 7 3 5 5 6 4 1 4 11 18 18 18 18 19 21 18 15 11 10 11 10 10 9 7 5 3 3 4 5 5 5 6 7 8 10 11 12 12 12 14 14 15 16 14 14 15 13
6 3 3 3 4 3 7 2 5 12 16 15 16 16 15 16 17 20 16 13 11 12 12 12 10 10 5 3 2 1 3 5 5 6 7 9 11 13 14 13 13 13 16 18 17 17 16 15 14
1 2 1 1 5 3 2 8 4 16 18 16 16 15 15 16 20 17 15 13 15 12 14 13 12 9 5 2 2 2 4 4 3 4 5 7 7 7 6 7 8 12 12 12 13 13 15 15 16
3 3 3 3 8 5 4 6 5 16 17 17 17 16 14 13 14 16 14 13 12 12 10 12 9 7 4 2 2 2 1 0 2 4 5 6 8 10 9 8 8 9 8 8 10 12 12 16 17
4 4 4 6 6 7 7 14 8 17 18 18 17 17 16 15 16 15 9 9 8 8 9 7 7 4 4 3 4 4 2 3 3 5 7 9 10 11 12 11 11 11 10 9 10 10 10 13 15
3 2 6 7 7 8 16 16 14 17 16 17 18 17 17 16 2 5 8 7 9 8 7 8 8 8 6 5 1 2 3 5 6 7 10 11 11 11 13 13 13 13 11 11 11 12 11 12 8
6 6 12 10 4 11 4 12 6 16 21 20 17 15 13 4 11 14 10 13 16 18 16 14 14 12 10 7 7 5 7 7 7 6 7 8 10 11 10 13 12 12 12 11 11 10 10 10 8
7 7 5 5 3 3 1 4 3 8 13 13 11 7 2 9 13 11 12 16 18 20 14 12 12 10 10 9 9 9 8 6 5 5 6 7 8 9 10 10 11 12 11 10 10 9 8 10 11
3 6 3 3 4 4 2 4 4 3 4 6 3 4 7 12 12 16 18 15 18 18 12 9 8 8 9 10 10 9 5 5 4 5 5 5 7 8 10 10 10 11 11 11 10 10 10 9 13
2 3 2 2 3 1 4 4 1 5 6 8 8 6 11 12 15 14 18 15 20 11 5 4 5 7 9 10 10 8 7 6 6 5 7 5 5 8 10 12 12 11 11 11 11 12 12 12 12
3 2 4 3 2 4 2 3 1 5 6 3 7 10 13 15 12 17 16 13 13 7 6 5 1 6 8 9 10 10 9 8 6 5 6 6 7 9 10 12 13 14 13 13 13 14 13 13 14
4 3 3 2 1 3 2 1 5 10 11 4 10 13 14 12 11 9 7 9 1 4 6 4 2 5 7 8 9 8 7 7 7 7 9 11 11 11 14 14 13 15 15 14 14 14 14 14 14
3 1 2 4 5 6 1 3 3 7 9 11 13 15 15 13 9 6 4 8 2 5 5 4 1 5 7 9 10 9 8 8 9 9 12 12 14 14 15 13 16 19 17 15 14 14 14 14 15
2 2 1 1 1 2 1 4 4 6 9 10 12 11 9 6 5 4 2 4 4 2 5 2 2 5 6 8 10 10 9 9 11 11 12 11 11 12 14 18 20 18 17 15 14 13 15 14 16
5 2 1 3 2 4 2 3 4 7 6 11 10 7 5 6 4 1 6 8 6 4 5 4 4 3 6 9 11 12 12 10 11 10 9 10 12 15 16 19 20 19 16 16 14 14 14 14 15
3 2 6 4 1 1 2 2 4 10 8 12 5 5 4 3 4 4 10 4 4 4 4 6 3 4 9 12 15 15 12 8 9 8 9 11 15 16 17 19 18 16 16 17 15 14 15 15 16
3 3 2 2 3 1 1 2 5 6 7 8 8 7 2 5 6 5 6 2 2 4 4 3 2 3 8 12 13 13 11 9 9 11 13 13 14 15 17 17 16 15 14 15 17 19 17 16 16
Wind_Direction
190 187 171 110 224 247 257 198 295 143 132 22 75 171 112 35 44 78 125 127 131 131 129 119 115 115 112 108 90 66 86 84 86 83 68 57 49 51 50 46 44 43 45 62 70 67 60 76 100
163 142 80 103 243 237 141 260 196 68 116 109 84 82 60 81 61 119 103 134 127 123 120 115 115 107 106 102 91 90 95 90 83 81 69 63 52 48 48 47 46 44 47 63 67 81 96 81 95
152 140 232 124 129 214 304 12 120 123 106 126 107 51 73 73 111 114 132 134 124 119 115 108 97 100 99 96 95 99 95 84 76 68 60 51 44 45 45 47 47 46 48 47 81 74 199 99 112
165 125 92 235 230 242 277 150 142 137 109 88 116 86 101 261 135 147 143 136 125 115 105 95 97 96 94 91 93 94 90 85 75 71 60 50 37 37 35 38 40 42 44 45 41 348 220 119 202
65 89 162 169 250 272 316 157 154 123 116 119 145 113 89 50 132 138 140 136 125 118 104 102 99 90 88 97 94 91 94 86 70 65 52 38 32 33 34 35 36 37 36 36 33 21 200 204 196
128 126 202 229 225 233 92 160 155 106 118 126 110 117 107 141 137 138 142 135 129 124 117 112 103 92 97 100 92 86 80 74 62 56 54 49 51 43 40 38 38 37 30 29 26 29 25 266 258
164 161 261 235 254 208 160 152 146 134 136 114 131 97 117 154 146 145 143 139 135 129 123 124 119 109 105 110 96 88 78 70 62 52 53 57 51 45 41 38 34 32 27 24 19 26 63 56 256
122 130 177 232 239 247 148 114 113 121 116 118 127 152 160 161 149 145 138 139 141 137 134 131 134 126 112 111 101 90 84 69 60 50 44 40 35 25 21 20 15 23 20 17 12 15 29 59 172
147 190 241 241 196 172 155 146 71 98 130 102 74 153 149 145 143 137 133 142 151 155 156 152 151 140 137 132 123 98 63 39 29 23 14 8 357 355 350 340 345 352 8 8 9 18 24 30 125
179 212 235 207 210 185 149 144 131 157 140 99 95 113 134 142 149 148 153 158 169 179 173 180 186 183 180 178 211 271 255 330 320 309 306 312 319 319 321 327 324 326 336 343 353 349 344 4 349
162 228 201 9 116 150 135 107 83 138 186 187 164 146 148 150 160 160 165 170 182 180 188 205 198 204 231 250 284 302 301 288 308 298 289 293 294 300 311 320 327 318 313 313 319 315 298 301 319
227 250 348 123 118 118 119 114 110 208 280 186 155 152 154 160 169 171 178 190 189 192 200 206 202 222 239 250 270 293 316 316 321 318 299 299 300 284 297 302 310 315 311 303 308 302 293 285 283
228 95 67 110 110 103 129 133 143 112 120 137 147 160 166 172 178 187 191 187 190 197 203 203 196 189 223 251 282 305 305 300 300 300 300 307 305 297 295 291 292 294 299 298 300 303 298 290 279
106 105 135 161 130 124 125 130 258 148 149 148 160 170 175 181 185 192 200 190 193 198 202 191 182 168 209 250 295 306 306 306 304 295 285 286 287 288 290 287 287 286 285 285 286 285 288 287 284
146 97 140 163 156 130 135 164 223 153 163 163 176 181 185 190 193 202 196 200 201 198 188 183 177 199 208 244 271 303 321 315 306 301 293 289 286 284 283 284 284 284 281 283 282 276 271 269 270
44 57 201 110 169 123 267 255 152 164 170 180 186 193 196 200 205 207 206 203 211 201 192 188 193 204 204 221 239 291 310 314 320 339 349 348 344 333 314 303 300 294 293 288 285 280 271 262 257
30 220 213 272 198 151 221 265 159 175 184 187 196 201 205 210 218 221 215 218 215 200 187 190 196 201 198 206 232 254 273 306 13 1 353 345 342 342 341 339 333 329 325 309 292 285 278 270 267
207 202 214 240 185 200 206 244 175 187 193 198 202 205 207 210 215 221 213 206 187 172 188 193 202 186 163 159 141 124 85 17 354 341 338 332 332 329 326 323 322 324 331 330 326 319 307 285 279
192 216 258 251 191 189 225 242 213 190 202 207 212 211 210 215 243 85 112 122 113 120 118 109 116 111 121 117 91 353 345 312 313 330 335 331 335 336 332 325 321 320 323 324 325 320 318 309 312
214 245 257 276 234 208 258 260 242 195 212 212 214 219 217 157 70 53 55 90 102 101 100 95 93 91 77 55 28 351 315 298 302 328 345 341 349 351 355 340 338 338 333 330 327 326 314 296 310
221 234 245 256 105 175 208 266 236 212 223 218 225 246 190 153 130 115 97 98 103 91 85 82 74 69 60 37 7 343 322 303 308 347 356 344 358 3 2 349 341 343 340 335 335 328 322 300 295
255 214 235 159 174 270 214 291 256 278 241 238 262 120 124 126 120 118 117 105 99 88 77 77 73 59 40 24 9 354 329 329 329 327 320 323 347 3 3 355 341 337 336 332 324 317 311 300 292
300 40 57 102 173 207 185 234 232 28 58 29 35 88 114 114 120 118 109 109 82 75 11 89 63 46 24 16 9 0 355 342 329 316 309 313 339 346 341 342 337 331 328 321 312 309 298 287 284
133 56 59 74 114 243 308 249 353 22 338 1 83 103 114 110 103 97 100 78 56 7 171 139 68 37 15 3 8 10 355 342 320 311 302 309 325 325 311 317 322 323 315 310 311 307 296 286 278
52 36 309 272 246 276 59 233 47 3 352 174 121 115 112 106 108 99 67 52 246 233 177 161 28 14 353 352 355 351 331 320 300 305 314 325 320 311 310 305 306 315 311 303 302 304 299 291 281
43 57 252 285 292 308 302 305 41 59 70 98 114 123 125 125 121 101 122 212 265 155 193 203 59 354 350 347 336 325 307 298 300 315 319 317 310 305 315 316 312 312 310 302 299 295 296 292 285
102 70 313 244 111 245 338 116 121 105 105 121 131 134 115 87 96 101 166 9 5 220 211 193 298 329 346 335 331 324 314 312 309 322 319 317 325 323 324 319 315 315 313 306 295 290 292 289 285
48 48 247 37 306 302 302 335 24 342 171 155 154 128 104 86 73 280 319 312 289 243 218 220 246 316 333 349 348 337 328 311 322 329 327 328 335 331 323 322 317 318 311 313 303 294 293 286 285
355 50 61 101 57 247 298 66 351 312 257 160 133 138 140 246 196 251 268 296 264 224 213 216 242 350 356 357 354 347 332 346 345 345 342 328 324 326 324 322 325 323 320 316 310 301 297 292 287
62 82 86 129 177 87 58 320 19 50 90 140 169 194 190 202 228 251 295 313 254 231 229 238 311 346 352 352 352 352 345 334 328 320 321 324 326 329 330 331 325 323 319 313 311 311 298 294 292